Location: Celina Division
(33.3022°N, 96.7580°W)
Time: 04:05:17
(UTC+00:00)

DUCHIFAT 1 - Visible Passes

Search period start: 29 March 2023 00:00
Search period end: 08 April 2023 00:00
Orbit: 569 x 586 km, 98.1° (Epoch: 28 March)

Date Brightness Start Highest point End Pass type
(mag) Time Alt. Az. Time Alt. Az. Time Alt. Az.
29 Mar ? 09:18:10 10° NNE 09:18:21 11° NNE 09:18:21 11° NNE visible
30 Mar ? 09:22:18 10° NNE 09:22:43 13° NNE 09:22:43 13° NNE visible
31 Mar ? 09:26:25 10° NNE 09:27:04 14° NNE 09:27:04 14° NNE visible
01 Apr ? 09:30:32 10° NNE 09:31:23 16° NNE 09:31:23 16° NNE visible
02 Apr ? 09:34:38 10° NNE 09:35:41 18° NNE 09:35:41 18° NNE visible
03 Apr ? 09:38:43 10° NNE 09:39:58 19° NNE 09:39:58 19° NNE visible
04 Apr ? 09:42:46 10° N 09:44:12 21° N 09:44:12 21° N visible
05 Apr ? 09:46:50 10° N 09:48:26 23° N 09:48:26 23° N visible
06 Apr ? 09:50:52 10° N 09:52:38 25° N 09:52:38 25° N visible
07 Apr ? 09:54:53 10° N 09:56:48 26° N 09:56:48 26° N visible
